DELTA 1 DEB, 7041

Orbit data source: Space-Track

DELTA 1 DEB, 7041 is space debris in SSO originally from a launch on Tue, 06 Nov 1973 UTC launched from the Air Force Western Test Range (AFWTR). Debris objects in space refer to the collection of defunct objects orbiting the Earth. Examples of debris include non-operational satellites, rocket bodies, and fragments generated from explosions, collisions, or faulty payload assembly.

Loading next visibility...
Identifier
7041, 1973-086AH
Orbit
SSO
Last TLE update
1 day ago
Origin
Manufacturer
Unknown
Mission
Spacecraft
Bus & Motor
Unknown
Mass
Unknown
Launch date (UTC)
1973-11-06 (52 years ago)
Launch vehicle
Unknown
Launch site
Air Force Western Test Range (AFWTR)
Object type
Payload
Rocket body
Debris
Shape & HBR
Unknown
Radar Cross Section
Medium (>0.1 m² and <1 m²)

Expand to show TLE details & history

TLE from 1 day ago
0 DELTA 1 DEB
1 07041U 73086AH  25125.84741383  .00001001  00000-0  76578-2 0  9996
2 07041 101.5873 165.5755 0177421 265.7286 270.9783 12.37391679304204
Epoch: 2025-05-05T20:20Z
Definitive object data (Epoch: 2025-05-05T20:20:16.554Z)
Latitude
5.14204°
Longitude
177.60349°
Altitude
1,519.817 km
Speed
7.106 km/s
True Right ascension
23h 06m 30s
True Declination
5° 06' 52"
Sunlit
Object was in daylight at TLE epoch
Visualization TLE readout
Latitude
1.88143°
Longitude
178.16196°
Altitude
1,506.074 km
Speed
7.118 km/s
Apparent Right ascension
23h 14m 48s
Apparent Declination
-16° 37' 30"
Sunlit
Object is in daylight
Visualization observer readout
Local Sidereal Time
11:24:33
Azimuth
5.895° NNE
Elevation
-66.613°
Doppler factor
1
Orbital elements
Apogee altitude
1,655.277 km
Perigee altitude
1,375.187 km
Semi-major axis
7,893.369 km
Eccentricity
0.0177421
Inclination
101.5873°
RAAN
165.5755°
Arg. of periapsis
265.7286°
True anomaly
268.94516°
Mean anomaly
270.9783°
Eccentric anomaly
269.96175°
Mean motion
3.09492 °/min
BSTAR
0.0076578
Orbital period
116.32 mins
Loading maneuver chart data...
Loading SW <> Apogee altitude chart data...
Loading historical data...
Loading historical data...
Loading historical data...
Loading historical data...
Loading historical data...
Loading historical data...
Loading historical data...

DELTA 1 DEB Visibility forecast

Observer location: undefined°, undefined°

Span
Click to sort rows by Start time (UTC) header in descending order
Start Az.
Max El. time (UTC)
Max El. Az.
Max El.
End time (UTC)
End Az.
8 mins2025-05-07 04:30:06.654Z244.367° WSW2025-05-07 04:34:06.654Z272.984° WNW15.149°2025-05-07 04:38:06.654Z300.775° NW
14 mins2025-05-07 14:44:06.654Z34.743° NE2025-05-07 14:51:06.654Z104.75° ESE35.341°2025-05-07 14:58:06.654Z167.402° S
14 mins2025-05-07 16:38:06.654Z1.439° NNE2025-05-07 16:45:06.654Z294.921° NW35.206°2025-05-07 16:52:06.654Z233.252° WSW
7 mins2025-05-08 00:01:06.654Z67.141° ENE2025-05-08 00:04:06.654Z45.674° ENE15.428°2025-05-08 00:08:06.654Z18.032° NNE
16 mins2025-05-08 01:49:06.654Z142.284° SSE2025-05-08 01:56:06.654Z77.688° E41.762°2025-05-08 02:05:06.654Z349.216° N
|